GLENN Weather Reports


time (UTC)temp
C
wind
direction
speed
KPH
gust
KPH
rain 1hr
cm
rain 24hr
cm
rain mn
cm
humidity
%
barometer
mb
20260507091507 9 148 16.1 20.9 0.00 0.13 0.13 70 1013.3
20260507090015 10 147 14.5 17.7 0.00 0.13 0.13 70 1013.2
20260507084526 10 126 6.4 8.0 0.05 0.13 0.13 70 1013.1
20260507083032 11 106 1.6 3.2 0.10 0.13 0.13 63 1013.1
20260507081528 11 336 3.2 22.5 0.13 0.13 0.13 66 1013.1
20260507080006 10 234 6.4 20.9 0.13 0.13 0.13 74 1013.2
20260507074527 10 5 6.4 27.4 0.08 0.08 0.08 68 1013.5
20260507073013 11 42 0.0 3.2 0.03 0.03 0.03 64 1013.5
20260507071517 11 342 0.0 4.8 0.00 0.00 0.00 58 1013.5
20260507070029 12 344 0.0 0.0 0.00 0.00 0.00 51 1013.3
20260507064506 12 77 1.6 3.2 0.00 0.00 0.00 53 1013.0
20260507063011 12 333 1.6 14.5 0.00 0.00 0.00 53 1013.0
20260507061513 12 118 3.2 12.9 0.00 0.00 0.00 51 1012.6
20260507060020 12 249 4.8 20.9 0.00 0.00 0.00 54 1013.1
20260507054530 12 150 0.0 11.3 0.00 0.00 0.00 54 1013.4
20260507053008 12 110 3.2 9.7 0.00 0.00 0.00 51 1013.2
20260507051526 12 269 4.8 19.3 0.00 0.00 0.00 49 1013.2
20260507050032 13 278 1.6 6.4 0.00 0.00 0.00 47 1013.5
20260507044520 13 213 1.6 4.8 0.00 0.00 0.00 47 1013.2
20260507043028 13 112 0.0 8.0 0.00 0.00 0.00 45 1013.2
20260507041508 13 72 1.6 9.7 0.00 0.00 0.00 42 1013.3
20260507040018 14 304 4.8 12.9 0.00 0.00 0.00 41 1013.2
20260507034525 13 309 1.6 4.8 0.00 0.00 0.00 41 1013.0
20260507033026 14 340 0.0 8.0 0.00 0.00 0.00 40 1012.7
20260507031527 14 40 0.0 0.0 0.00 0.00 0.00 39 1012.3
20260507030018 13 352 0.0 0.0 0.00 0.00 0.00 40 1012.3
20260507024525 14 352 0.0 0.0 0.00 0.00 0.00 41 1012.1
20260507023022 14 25 1.6 4.8 0.00 0.00 0.00 40 1012.0
20260507021524 14 64 0.0 3.2 0.00 0.00 0.00 41 1012.0
20260507020031 15 40 0.0 3.2 0.00 0.00 0.00 41 1011.9
20260507014529 15 54 0.0 3.2 0.00 0.00 0.00 38 1011.9
20260507013040 16 33 1.6 4.8 0.00 0.00 0.00 37 1011.9
20260507011524 16 249 0.0 6.4 0.00 0.00 0.00 38 1011.9
20260507010034 16 40 0.0 3.2 0.00 0.00 0.00 36 1012.0
20260507004528 16 360 0.0 3.2 0.00 0.00 0.00 40 1012.1
20260507003019 17 352 1.6 6.4 0.00 0.00 0.00 34 1012.1
20260507001504 17 318 4.8 11.3 0.00 0.00 0.00 32 1012.2
20260507000009 18 304 4.8 12.9 0.00 0.00 0.00 31 1012.2
20260506234514 18 292 9.7 16.1 0.00 0.00 0.00 30 1012.3
20260506233017 18 311 3.2 14.5 0.00 0.00 0.00 31 1012.4
20260506231504 18 287 3.2 11.3 0.00 0.00 0.00 31 1012.7
20260506230009 18 352 1.6 9.7 0.00 0.00 0.00 33 1013.0
20260506224508 17 334 3.2 14.5 0.00 0.00 0.00 32 1013.2
20260506223013 17 5 1.6 8.0 0.00 0.00 0.00 33 1013.3
20260506221521 16 302 1.6 16.1 0.00 0.00 0.00 31 1013.6
20260506220007 16 81 8.0 14.5 0.00 0.00 0.00 34 1013.6
20260506214510 16 10 3.2 12.9 0.00 0.00 0.00 36 1014.1
20260506213016 15 92 3.2 8.0 0.00 0.00 0.00 33 1014.5
20260506211518 15 57 4.8 16.1 0.00 0.00 0.00 35 1014.9
20260506210026 15 192 3.2 16.1 0.00 0.00 0.00 37 1015.1
20260506204508 14 215 1.6 9.7 0.00 0.00 0.00 36 1015.3
20260506203008 13 101 0.0 11.3 0.00 0.00 0.00 33 1015.6
20260506201517 12 42 1.6 16.1 0.00 0.00 0.00 32 1015.7
20260506200021 12 121 3.2 11.3 0.00 0.00 0.00 33 1016.0
20260506194526 11 76 3.2 12.9 0.00 0.00 0.00 33 1016.2
20260506193010 11 304 6.4 8.0 0.00 0.00 0.00 31 1016.5
20260506191528 11 10 0.0 3.2 0.00 0.00 0.00 35 1016.6
20260506190019 10 154 4.8 12.9 0.00 0.00 0.00 31 1016.7
20260506184540 10 329 3.2 12.9 0.00 0.00 0.00 27 1017.0
20260506183037 10 278 6.4 12.9 0.00 0.00 0.00 30 1017.2
20260506181515 9 272 1.6 9.7 0.00 0.00 0.00 24 1017.4
20260506180016 9 241 4.8 14.5 0.00 0.00 0.00 25 1017.5
20260506174525 8 73 1.6 8.0 0.00 0.00 0.00 29 1017.6
20260506173025 8 336 3.2 9.7 0.00 0.00 0.00 32 1017.8
20260506171528 8 360 3.2 9.7 0.00 0.00 0.00 31 1018.0
20260506170014 7 180 3.2 12.9 0.00 0.00 0.00 33 1018.2
20260506164523 7 352 1.6 12.9 0.00 0.00 0.00 35 1018.3
20260506163025 7 310 4.8 12.9 0.00 0.00 0.00 38 1018.3
20260506161525 6 76 1.6 6.4 0.00 0.00 0.00 38 1018.5
20260506160026 6 344 4.8 8.0 0.00 0.00 0.00 39 1018.5
20260506154520 6 84 1.6 9.7 0.00 0.00 0.00 42 1018.6
20260506153022 5 234 1.6 6.4 0.00 0.00 0.00 42 1018.7
20260506151507 5 333 1.6 6.4 0.00 0.00 0.00 47 1018.8
20260506150010 3 302 1.6 6.4 0.00 0.00 0.00 58 1018.9
20260506144519 3 352 3.2 6.4 0.00 0.00 0.00 58 1019.0
20260506143022 2 323 1.6 3.2 0.00 0.00 0.00 60 1019.1
20260506141503 2 335 1.6 3.2 0.00 0.00 0.00 63 1019.1
20260506140009 2 44 0.0 4.8 0.00 0.00 0.00 56 1019.2
20260506134510 1 108 3.2 4.8 0.00 0.00 0.00 63 1019.2
20260506133018 0 104 4.8 6.4 0.00 0.00 0.00 64 1019.1
20260506131529 -1 108 4.8 4.8 0.00 0.00 0.00 69 1019.0
20260506130005 -1 109 4.8 6.4 0.00 0.00 0.00 69 1019.1
20260506124509 -2 122 4.8 6.4 0.00 0.00 0.00 69 1019.0
20260506123017 -2 99 4.8 6.4 0.00 0.00 0.00 69 1018.8
20260506121520 -2 114 3.2 4.8 0.00 0.00 0.00 70 1018.9
20260506120026 -2 105 4.8 6.4 0.00 0.00 0.00 69 1018.8
20260506114518 -2 107 6.4 9.7 0.00 0.00 0.00 73 1018.8
20260506113024 -2 154 8.0 9.7 0.00 0.00 0.00 70 1018.8
20260506111517 -2 137 6.4 6.4 0.00 0.00 0.00 73 1018.8
20260506110021 -2 119 6.4 9.7 0.00 0.00 0.00 71 1019.0
20260506104525 -2 115 6.4 6.4 0.00 0.00 0.00 72 1019.1
20260506103012 -2 125 6.4 6.4 0.00 0.00 0.00 73 1019.1
20260506101516 -2 136 6.4 6.4 0.00 0.00 0.00 71 1019.1
20260506100020 -2 121 4.8 6.4 0.00 0.00 0.00 71 1019.0
20260506094521 -1 123 3.2 6.4 0.00 0.00 0.00 69 1019.2
20260506093025 -1 107 4.8 6.4 0.00 0.00 0.00 68 1019.3